RH
22 22 22 22 23 24 23 23 24 24 24 23 23 23 24 25 26 27 28 27 27 27 29 32 33 32 31 29 29 28 28 27 25 24 23 23 22 22 23 23 23 23 24 23 23 22 21 21 21 22 23 25 27 28 29 29 29 29 28 29 29 28 27 29 30 31 32 32 31 31 34 36 37 36 36 38 40 43 47 53 56 57 57 59 61 64
24 25 26 27 28 28 27 27 27 27 27 26 26 27 27 28 30 30 30 30 30 31 32 31 30 29 28 28 27 26 25 25 24 23 23 22 22 23 23 23 24 24 24 23 22 21 21 21 23 26 30 32 34 34 33 33 34 35 37 37 36 33 31 32 33 35 35 33 32 31 33 35 35 35 35 36 38 40 43 48 53 56 57 58 60 62
28 29 30 32 32 32 30 29 28 27 28 28 29 30 31 32 33 33 34 34 34 33 32 30 30 29 28 28 27 25 24 23 23 23 23 23 23 23 24 24 25 25 24 23 22 22 22 24 28 33 38 40 41 40 39 37 36 38 42 44 43 40 36 35 34 34 34 33 33 34 35 35 35 34 34 35 36 37 38 42 48 52 56 57 58 59
33 33 33 33 32 31 29 28 27 27 29 30 31 32 33 35 36 37 38 36 34 32 30 30 30 30 30 28 27 25 24 23 23 23 23 24 24 25 25 25 25 25 24 23 22 22 23 28 34 40 44 45 46 46 45 45 43 42 43 44 44 43 42 40 38 35 33 35 36 37 36 35 35 35 35 36 35 35 36 39 43 47 52 55 57 58
36 35 33 32 30 28 27 27 28 29 31 33 34 35 37 40 41 42 42 40 38 35 33 32 32 32 31 29 27 25 24 24 24 25 25 26 26 26 26 25 25 24 23 23 23 23 25 30 36 41 46 47 47 46 45 47 47 46 45 44 44 45 46 45 43 40 37 38 38 38 35 35 36 37 37 37 37 38 39 40 42 44 47 51 54 56
39 37 33 31 29 29 29 30 32 34 36 37 39 40 43 45 47 48 47 45 44 42 39 36 35 33 31 28 27 26 26 27 28 29 29 29 28 27 26 25 24 23 23 23 24 25 27 31 36 41 45 46 45 44 43 45 45 45 45 44 43 43 44 45 45 44 42 42 41 39 38 39 40 41 41 41 43 44 43 42 42 42 44 46 49 53
46 42 36 33 33 33 34 35 37 40 42 44 45 46 48 50 50 50 49 48 48 46 43 39 36 33 30 28 28 29 31 32 32 32 31 30 28 26 25 24 23 23 23 24 25 27 29 32 36 39 42 43 43 43 45 46 46 45 45 44 43 43 42 43 45 47 48 48 46 43 41 44 46 48 48 49 50 50 47 44 43 42 42 43 45 48
51 46 39 37 36 37 38 39 41 44 47 49 50 51 51 51 51 51 50 49 48 45 42 38 35 32 29 30 31 34 36 36 36 34 32 30 27 25 24 23 23 23 24 25 26 28 31 34 37 39 41 43 47 50 54 53 51 49 47 46 46 46 45 46 47 49 51 51 50 48 46 49 53 55 55 56 56 54 50 47 45 44 44 43 44 45
50 46 39 38 39 40 41 43 46 48 51 52 52 52 52 52 51 49 48 45 43 40 37 35 33 31 30 33 35 38 39 39 38 36 32 29 27 25 24 23 22 23 24 25 27 29 32 36 38 40 42 49 54 57 58 55 52 50 47 47 48 49 49 48 48 50 51 50 50 49 49 53 57 59 59 59 58 56 52 50 49 48 47 45 45 45
46 41 38 39 40 43 46 49 50 51 52 51 50 50 49 49 48 46 43 39 36 33 32 32 32 32 34 36 38 40 41 41 40 37 33 30 28 26 25 24 23 23 24 26 28 31 34 37 40 42 43 50 53 53 52 49 48 47 46 48 50 51 51 50 49 49 50 49 49 50 52 56 59 61 61 60 58 57 56 54 53 52 51 49 47 46
38 37 40 42 45 48 50 52 52 50 48 46 44 43 42 42 41 39 37 33 30 29 29 31 33 35 38 39 41 42 45 45 43 40 35 31 29 27 26 24 23 23 25 28 31 33 36 37 39 42 43 45 44 43 42 42 43 44 46 48 50 52 53 52 51 50 49 49 49 50 53 56 59 61 62 61 60 59 58 57 56 55 54 53 51 49
36 40 45 48 50 51 51 51 49 47 44 41 38 36 33 32 32 33 32 30 29 29 31 33 36 39 42 44 46 47 49 49 47 43 37 33 30 28 26 24 24 24 26 30 33 36 38 39 40 41 41 40 39 37 37 37 38 40 42 45 47 50 51 51 51 52 51 50 50 50 51 53 56 58 60 61 61 60 60 59 58 57 56 55 55 55
41 46 49 50 51 51 50 48 46 44 42 39 37 34 32 31 31 31 32 32 33 34 37 40 42 44 46 50 52 53 52 51 48 43 38 34 31 28 26 25 25 26 28 31 33 36 38 39 39 39 38 37 36 35 35 34 35 36 38 42 45 47 48 48 51 53 54 52 51 51 51 52 54 56 59 61 62 62 61 60 60 60 59 59 61 62
47 50 51 52 51 49 47 46 45 44 41 38 36 34 34 34 35 35 37 38 40 42 46 48 50 50 50 52 53 52 51 48 45 41 37 33 30 28 26 26 27 28 31 31 31 31 32 32 32 33 33 34 35 36 37 37 37 37 38 41 45 47 48 51 54 55 54 53 52 52 52 54 56 58 60 63 64 64 63 63 64 66 66 69 69 66
51 52 52 49 46 44 42 42 40 39 37 36 36 36 37 38 40 42 44 46 48 50 52 53 53 52 50 48 47 47 46 45 42 40 36 32 28 26 26 27 28 30 32 34 34 33 32 32 32 32 32 35 38 41 43 43 41 40 40 41 45 49 52 55 57 56 54 53 53 53 54 56 59 63 66 67 67 67 66 66 67 69 68 71 69 66
52 51 49 44 41 38 36 35 35 35 36 37 38 40 42 44 46 48 51 53 54 54 54 53 51 48 43 39 39 40 42 42 41 39 36 31 27 25 25 28 31 33 35 37 38 38 38 38 38 38 39 42 46 49 51 48 46 44 42 45 48 52 54 56 56 56 54 53 52 52 54 55 59 64 70 72 72 71 70 68 67 68 69 70 69 66
52 50 49 47 44 40 36 35 36 37 39 40 41 43 46 49 52 54 55 54 54 54 52 50 46 43 38 35 35 36 40 42 41 38 35 29 26 24 26 31 35 37 37 39 41 42 43 42 42 43 44 48 51 53 54 53 51 48 45 46 48 51 52 53 54 53 52 51 50 50 52 54 58 62 68 73 74 73 71 67 65 65 66 68 68 66
51 50 50 49 46 42 38 38 39 40 41 42 43 46 50 53 54 54 54 54 53 51 48 46 44 41 38 36 34 34 37 40 39 36 32 28 26 25 29 34 37 39 40 41 42 43 44 44 45 46 47 48 50 52 53 53 52 51 49 47 46 46 47 47 48 48 48 47 47 48 52 55 59 62 66 69 71 70 67 64 62 61 62 64 64 63
51 50 50 48 44 41 39 41 42 43 44 45 47 51 54 54 54 53 53 52 50 48 46 45 43 40 38 36 35 34 36 37 37 35 31 29 28 29 32 37 40 41 41 42 43 45 46 47 47 46 46 47 49 50 52 52 52 52 51 48 46 45 43 43 44 45 46 46 48 50 54 58 62 65 68 68 67 65 62 59 57 56 57 59 59 58
50 49 47 44 42 41 41 43 44 45 46 47 50 52 53 53 53 52 50 49 48 46 46 45 43 40 39 37 36 35 36 36 36 35 33 32 32 33 36 39 41 41 41 43 45 47 49 48 46 45 45 47 48 50 52 53 53 53 51 50 48 45 43 42 42 43 45 48 50 53 55 59 63 67 71 71 69 65 60 56 53 52 52 53 53 52
46 44 42 42 43 44 44 45 45 46 45 47 49 51 52 51 51 49 48 47 46 44 43 43 42 41 41 41 39 38 37 38 38 37 36 35 35 36 38 41 43 44 45 47 48 49 48 46 45 44 45 46 49 51 54 55 55 55 52 51 49 47 45 43 42 43 45 47 49 52 54 58 63 67 71 72 72 69 64 57 52 49 48 48 48 48
43 43 43 45 46 47 47 47 46 45 44 47 49 51 51 50 50 49 48 45 44 43 43 44 45 45 45 44 42 41 41 41 41 41 41 39 38 38 40 43 46 48 49 48 47 46 45 45 44 45 46 48 52 55 58 59 59 57 54 52 50 49 47 45 44 44 45 46 47 49 51 55 60 65 69 71 70 68 63 56 50 46 45 45 45 45
46 47 47 47 48 49 49 48 47 45 44 46 49 50 50 49 49 48 47 45 45 45 47 48 48 49 49 48 47 46 46 47 47 47 46 45 42 41 42 46 49 49 46 44 44 44 44 45 46 47 49 52 56 60 64 64 62 59 55 53 51 50 49 47 46 45 45 44 44 44 45 50 55 61 66 68 68 66 62 55 48 43 41 42 43 44
50 51 50 50 50 50 50 49 48 46 45 47 49 50 49 48 47 47 46 47 48 50 52 53 54 54 55 56 56 55 55 55 54 53 52 49 46 44 46 49 49 47 43 42 43 45 46 47 49 50 52 56 60 64 67 65 62 57 54 53 52 51 49 48 47 45 44 42 40 40 40 45 51 58 64 66 67 65 62 54 47 41 37 39 40 42
53 53 53 52 51 51 50 49 47 46 45 48 49 49 47 46 45 46 47 51 54 58 60 61 61 62 62 63 63 64 64 62 60 58 56 53 51 50 50 50 49 46 43 44 47 49 50 50 51 52 55 60 64 66 67 65 60 55 52 52 52 51 50 48 47 45 42 40 39 39 41 45 51 57 62 65 66 64 62 54 47 39 35 36 38 41
53 53 53 52 51 50 49 47 45 45 46 50 51 50 49 50 50 51 54 58 62 65 67 68 68 69 69 70 71 71 71 68 65 62 60 58 56 54 53 51 50 49 48 49 50 52 52 53 53 54 57 63 66 67 66 64 59 54 51 52 52 51 50 48 46 45 43 42 42 42 43 46 51 55 60 64 65 64 61 54 47 40 35 35 37 39
51 50 49 48 47 46 45 45 46 48 51 53 55 56 58 58 58 58 60 63 67 69 71 72 73 73 74 75 75 75 75 74 71 68 65 63 61 59 58 57 56 55 53 53 53 54 55 55 55 55 58 64 66 66 65 61 57 52 50 51 51 50 49 47 47 46 45 44 43 42 43 46 49 53 58 62 63 63 61 55 49 42 36 35 36 38
46 45 44 44 44 45 47 50 53 56 58 60 62 64 66 65 64 64 64 66 68 69 71 74 76 76 77 76 77 77 77 76 75 73 70 68 66 66 65 64 62 61 59 57 56 56 57 56 56 56 57 61 63 64 62 58 54 51 49 50 50 50 49 48 48 48 47 45 43 42 42 44 47 50 55 59 61 61 60 56 51 45 39 36 35 36
42 42 43 45 47 50 53 56 59 62 64 66 68 69 70 70 69 68 67 68 68 68 69 72 75 77 78 78 77 77 77 77 75 74 73 72 71 70 70 69 67 65 63 61 59 58 57 56 56 55 55 57 58 59 58 54 52 50 49 49 50 50 49 49 49 48 47 45 43 42 42 43 45 48 51 55 58 59 60 58 55 50 44 40 37 36
44 46 48 51 54 57 60 63 65 67 68 70 71 72 72 73 73 72 72 71 70 69 69 70 73 75 78 78 77 76 76 75 74 73 73 73 73 72 72 71 69 67 66 64 62 60 58 56 55 55 54 54 55 55 54 52 50 50 49 50 50 50 50 49 48 48 47 45 44 43 42 43 44 45 48 50 53 56 58 59 57 54 50 45 41 38
51 54 56 58 61 63 66 68 69 70 71 71 71 72 73 74 75 75 75 75 74 72 70 70 72 74 76 78 78 77 75 75 74 73 73 73 73 73 73 71 70 68 67 66 64 62 59 56 55 55 54 54 54 53 52 51 50 50 50 50 50 50 50 49 48 47 47 45 44 43 42 43 43 44 45 47 50 53 55 57 57 55 52 48 44 41
59 61 63 65 67 69 71 71 72 72 72 72 72 73 74 75 75 76 76 76 76 75 74 73 73 74 75 77 78 78 77 77 76 75 75 74 74 73 74 72 70 68 67 65 64 63 61 58 56 56 55 55 54 53 51 50 50 51 51 51 51 50 50 49 48 47 46 45 44 43 43 43 43 44 45 46 48 50 52 54 54 53 51 49 45 42
65 67 68 69 71 72 73 73 73 73 74 74 74 75 75 76 76 77 77 78 78 77 77 76 75 74 75 77 78 78 78 78 76 75 75 75 74 73 74 73 71 68 65 63 62 62 61 58 57 56 56 55 54 53 51 51 51 51 51 51 51 50 49 48 47 46 46 45 44 43 42 43 43 44 45 46 48 49 51 51 52 51 50 48 45 42
70 71 72 72 73 73 74 74 74 75 75 76 76 76 77 77 78 78 79 79 79 79 78 78 77 76 75 76 76 77 78 78 76 74 74 74 73 72 73 72 70 67 63 61 60 59 59 57 56 55 55 56 55 54 53 52 51 51 51 51 50 49 48 48 47 47 47 46 45 44 43 43 44 46 47 48 49 50 50 51 51 50 49 47 44 41
74 74 74 74 75 75 75 76 76 76 77 77 78 78 78 78 79 79 80 80 80 80 79 79 78 77 76 76 75 75 76 77 75 73 73 72 72 71 72 70 68 65 61 59 58 58 57 56 55 55 55 56 56 55 54 52 51 51 50 50 49 48 47 47 48 48 48 48 46 45 44 45 47 48 49 50 50 50 51 51 50 50 48 46 44 41
76 76 76 76 76 76 77 77 78 78 78 78 78 79 79 79 80 80 81 81 80 80 80 80 79 78 77 76 75 75 76 76 74 73 72 72 71 70 70 69 66 62 59 58 58 58 57 56 55 54 54 54 55 55 54 52 51 50 49 49 48 48 47 48 49 50 50 49 48 47 46 47 48 49 50 50 50 50 50 50 49 48 47 45 43 41
77 77 77 77 78 78 78 78 79 79 79 79 79 79 80 80 81 81 81 81 81 81 81 80 80 79 78 77 76 76 76 75 74 72 73 73 72 71 69 67 63 60 59 59 59 58 57 56 55 53 52 53 54 55 54 53 52 50 50 49 48 48 48 49 50 51 51 51 50 49 49 49 50 50 50 50 49 49 48 48 47 46 45 44 43 41
78 78 78 79 79 80 80 79 79 79 79 79 80 80 81 81 81 81 81 81 81 81 80 80 80 79 79 78 77 77 77 75 73 73 75 74 73 72 70 67 63 60 59 59 59 58 57 56 54 52 51 52 54 55 55 54 53 52 50 49 49 49 49 50 51 52 52 52 52 52 52 52 52 51 51 50 49 49 48 47 47 46 45 44 44 43
79 79 80 80 80 81 80 80 80 80 80 80 80 81 82 82 81 81 81 81 81 80 80 80 80 79 79 78 78 78 77 74 73 72 74 73 73 72 71 67 64 61 59 59 59 58 57 56 54 53 51 52 53 54 55 54 53 52 50 49 49 50 50 51 51 52 53 53 53 54 54 54 54 54 53 52 52 52 52 50 49 48 47 47 46 47
80 80 81 81 81 81 81 81 80 80 81 81 81 81 82 82 81 80 80 80 80 80 80 80 79 79 78 78 78 78 76 74 72 71 71 71 71 71 71 68 64 62 60 59 59 58 58 57 56 55 54 53 54 55 55 54 53 52 51 51 51 51 50 51 52 52 53 53 54 54 55 56 56 56 55 55 55 55 54 53 52 51 50 50 51 52
81 81 81 81 81 81 81 81 81 81 81 81 82 82 82 82 81 81 80 80 80 79 79 79 79 78 78 77 77 77 76 75 73 72 71 70 71 72 71 68 65 62 61 61 60 60 59 59 58 56 56 55 55 56 56 55 54 53 52 52 52 51 51 51 52 53 53 53 54 55 55 56 56 57 57 57 56 56 55 55 54 54 54 54 56 57
81 82 82 82 82 82 82 82 82 82 82 82 82 82 82 82 81 81 80 79 79 79 79 80 79 79 77 77 76 76 76 76 75 74 73 72 72 72 70 68 65 63 62 62 62 62 61 60 59 58 58 57 57 57 57 56 54 53 53 53 52 52 51 51 52 53 53 54 54 55 56 56 57 57 57 57 57 57 57 57 57 58 58 59 60 62
82 82 82 82 82 82 82 82 82 82 82 82 82 82 81 81 81 81 80 80 80 80 80 80 80 79 78 77 76 76 76 76 75 75 75 74 73 72 71 69 67 66 66 65 65 64 63 62 61 60 59 58 58 58 58 57 55 54 53 53 53 52 52 52 52 53 53 54 55 56 56 56 57 57 58 58 58 58 58 59 60 61 63 64 65 66
82 82 82 82 82 82 82 82 82 82 82 82 82 82 82 82 82 81 81 81 81 81 81 81 80 79 78 78 78 78 78 77 76 76 76 75 74 73 73 71 70 70 69 69 69 68 67 66 64 62 60 60 59 59 59 58 57 56 54 54 53 53 52 53 53 53 54 54 55 55 56 56 57 57 58 58 59 60 61 62 64 66 67 67 68 69
82 82 82 82 82 82 82 82 82 82 82 82 82 82 82 82 82 82 81 82 81 81 81 81 80 80 79 80 80 80 80 78 78 77 77 76 76 75 74 73 73 73 73 73 73 72 70 69 67 65 63 62 61 61 61 60 58 57 55 55 54 54 54 53 53 53 54 54 55 56 56 56 57 58 58 59 60 61 63 65 67 69 71 71 72 72
82 82 82 82 82 82 83 83 83 82 82 82 82 82 82 82 82 82 82 82 82 82 82 82 81 81 81 82 82 81 81 80 79 79 79 77 76 76 75 75 74 75 75 76 76 75 74 72 70 69 67 66 65 64 63 61 60 58 57 56 55 54 54 53 53 53 54 55 55 56 56 56 57 58 59 60 61 63 65 67 69 71 73 75 76 76
82 82 82 82 82 82 83 83 83 82 82 82 82 83 83 83 83 83 82 82 82 82 82 82 82 82 82 83 83 82 82 81 81 81 81 79 78 78 77 77 76 76 77 77 77 77 77 75 74 72 70 70 69 68 65 63 61 60 58 57 56 55 54 54 53 54 54 55 55 55 55 56 57 58 59 61 62 64 66 69 71 73 75 77 78 78
82 82 82 82 82 82 83 83 82 82 82 82 82 83 83 83 83 83 82 82 82 83 82 82 82 83 83 83 83 83 83 83 83 83 82 82 81 81 80 79 78 78 78 78 78 78 78 77 76 75 74 73 72 71 68 65 63 62 60 59 57 56 54 54 54 54 54 55 54 55 55 57 57 59 60 62 64 66 68 71 73 75 77 78 79 79
82 82 82 82 82 82 83 83 83 83 82 82 82 82 82 82 82 82 82 83 83 83 82 82 83 83 83 83 83 83 83 83 83 83 83 83 83 82 82 81 80 79 79 78 78 78 77 76 76 76 76 75 74 73 70 67 65 63 62 60 58 56 54 54 54 54 55 55 55 55 56 57 58 60 61 64 66 69 72 74 76 77 78 78 78 77
82 82 82 82 82 82 83 83 83 83 82 82 83 83 82 82 83 82 82 83 83 83 83 83 83 83 83 83 83 83 83 83 83 83 84 83 84 84 83 83 82 81 79 78 77 76 76 75 75 75 76 76 75 74 72 69 67 65 63 61 59 57 55 54 54 54 55 55 56 56 57 58 60 62 64 67 70 72 75 76 76 77 77 77 77 76
82 82 82 82 82 82 82 82 83 83 82 83 83 83 82 82 82 82 82 83 83 83 83 83 83 83 83 83 83 83 83 83 83 83 83 83 84 84 84 84 83 82 81 79 78 77 75 74 74 73 73 74 74 73 72 69 67 65 64 61 59 57 55 54 54 55 55 56 56 57 58 60 61 64 66 69 71 73 74 74 74 74 75 75 75 75